Weather History for Norman, OK

Change the Weather History Date:

Saturday, January 12, 2013

  Actual Average Record
Temperature  
Mean Temperature 40 °F -  
Max Temperature 55 °F 47 °F 73 °F (2006)
Min Temperature 26 °F 25 °F -4 °F (1973)
Degree Days  
Heating Degree Days 24    
Moisture  
Dew Point 28 °F    
Average Humidity 73    
Maximum Humidity 87    
Minimum Humidity 41    
Precipitation  
Precipitation 0.00 in - - ()
Sea Level Pressure  
Sea Level Pressure 29.93 in    
Wind  
Wind Speed 15 mph (North)    
Max Wind Speed 25 mph    
Max Gust Speed 32 mph    
Visibility 10 miles    
Events Rain , Thunderstorm    
Averages and records for this station are not official NWS values.
T = Trace of Precipitation, MM = Missing Value Source: NWS Daily Summary

Daily Weather History Graph

Daily Weather History Graph

Search for Another Location

Airport:

Trip Planner

Search our weather history database for the weather conditions in past years. The results will help you decide how hot, cold, wet, or windy it might be!

Date:

Astronomy

Jan. 12, 2013 Rise Set
Actual Time 7:38 AM CST 5:38 PM CST
Civil Twilight 7:10 AM CST 6:06 PM CST
Nautical Twilight 6:39 AM CST 6:37 PM CST
Astronomical Twilight 6:08 AM CST 7:08 PM CST
Moon 8:02 AM CST (1/12) 7:04 PM CST (1/12)
Length of Visible Light 10h 55m
Length of Day
9h 59m
New Moon, 1% of the Moon is Illuminated
Jan 12
New Moon
Jan 18
First Quarter
Jan 26
Full
Feb 3
Last Quarter
Feb 10
New

Hourly Weather History & Observations

Time (CST) Temp. Windchill Dew Point Humidity Pressure Visibility Wind Dir Wind Speed Gust Speed Precip Events Conditions
12:15 AM 55.4 °F - 41.0 °F 58% 29.85 in 10.0 mi NNW 6.9 mph - N/A   Mostly Cloudy
12:35 AM 55.4 °F - 41.0 °F 58% 29.84 in 10.0 mi NNW 8.1 mph - N/A   Mostly Cloudy
12:55 AM 53.6 °F - 37.4 °F 54% 29.85 in 10.0 mi NNW 6.9 mph - N/A   Clear
1:15 AM 53.6 °F - 37.4 °F 54% 29.86 in 10.0 mi NW 8.1 mph - N/A   Clear
1:55 AM 53.6 °F - 32.0 °F 44% 29.85 in 10.0 mi NNW 10.4 mph - N/A   Clear
2:15 AM 51.8 °F - 30.2 °F 44% 29.86 in 10.0 mi North 9.2 mph - N/A   Clear
2:35 AM 51.8 °F - 28.4 °F 41% 29.86 in 10.0 mi North 11.5 mph - N/A   Clear
2:55 AM 50.0 °F - 30.2 °F 47% 29.87 in 10.0 mi North 10.4 mph - N/A   Clear
3:15 AM 50.0 °F - 30.2 °F 47% 29.88 in 10.0 mi North 12.7 mph - N/A   Clear
3:35 AM 48.2 °F - 30.2 °F 50% 29.87 in 10.0 mi North 10.4 mph - N/A   Clear
3:55 AM 46.4 °F 40.4 °F 30.2 °F 53% 29.87 in 10.0 mi North 13.8 mph - N/A   Clear
4:15 AM 46.4 °F 40.7 °F 30.2 °F 53% 29.86 in 10.0 mi North 12.7 mph - N/A   Clear
4:35 AM 46.4 °F 39.5 °F 30.2 °F 53% 29.86 in 10.0 mi North 17.3 mph 21.9 mph N/A   Clear
4:55 AM 44.6 °F 37.8 °F 32.0 °F 61% 29.89 in 10.0 mi NNW 15.0 mph 21.9 mph N/A   Clear
5:15 AM 42.8 °F 35.1 °F 33.8 °F 70% 29.90 in 10.0 mi NNW 16.1 mph - N/A   Clear
5:35 AM 42.8 °F 34.8 °F 33.8 °F 70% 29.91 in 10.0 mi NNW 17.3 mph - N/A   Scattered Clouds
5:55 AM 41.0 °F 33.9 °F 33.8 °F 76% 29.91 in 10.0 mi North 12.7 mph 19.6 mph N/A   Mostly Cloudy
6:15 AM 41.0 °F 33.9 °F 33.8 °F 76% 29.92 in 10.0 mi North 12.7 mph 19.6 mph N/A   Overcast
6:35 AM 41.0 °F 32.5 °F 33.8 °F 76% 29.93 in 10.0 mi North 17.3 mph - N/A   Mostly Cloudy
6:55 AM 39.2 °F 29.6 °F 33.8 °F 81% 29.93 in 10.0 mi North 19.6 mph - N/A   Mostly Cloudy
7:15 AM 37.4 °F 27.5 °F 33.8 °F 87% 29.92 in 10.0 mi North 18.4 mph 24.2 mph N/A   Mostly Cloudy
7:35 AM 37.4 °F 27.2 °F 33.8 °F 87% 29.93 in 10.0 mi North 19.6 mph 24.2 mph N/A   Overcast
7:55 AM 37.4 °F 29.3 °F 33.8 °F 87% 29.95 in 10.0 mi North 12.7 mph 21.9 mph N/A   Overcast
8:15 AM 37.4 °F 28.2 °F 32.0 °F 81% 29.94 in 10.0 mi North 16.1 mph 24.2 mph N/A   Overcast
8:35 AM 37.4 °F 27.2 °F 32.0 °F 81% 29.97 in 10.0 mi North 19.6 mph 25.3 mph N/A   Overcast
8:55 AM 37.4 °F 27.8 °F 32.0 °F 81% 29.96 in 10.0 mi North 17.3 mph 23.0 mph N/A   Overcast
9:15 AM 37.4 °F 26.9 °F 32.0 °F 81% 29.94 in 10.0 mi North 20.7 mph 24.2 mph N/A   Overcast
9:35 AM 35.6 °F 24.8 °F 30.2 °F 81% 29.94 in 10.0 mi North 19.6 mph 24.2 mph N/A   Overcast
9:55 AM 35.6 °F 25.2 °F 28.4 °F 75% 29.94 in 10.0 mi NNE 18.4 mph 25.3 mph N/A   Overcast
10:15 AM 35.6 °F 25.5 °F 30.2 °F 81% 29.95 in 10.0 mi NNE 17.3 mph - N/A Rain Light Rain
10:35 AM 35.6 °F 25.2 °F 30.2 °F 81% 29.88 in 10.0 mi NE 18.4 mph 28.8 mph N/A   Mostly Cloudy
10:55 AM 35.6 °F 26.2 °F 30.2 °F 81% 29.95 in 10.0 mi NNW 15.0 mph 25.3 mph N/A   Mostly Cloudy
11:15 AM 33.8 °F 23.9 °F 30.2 °F 87% 29.95 in 10.0 mi North 15.0 mph - N/A   Overcast
11:35 AM 33.8 °F 22.8 °F 30.2 °F 87% 29.95 in 10.0 mi North 18.4 mph - N/A   Overcast
11:55 AM 33.8 °F 22.5 °F 30.2 °F 87% 29.92 in 10.0 mi NNE 19.6 mph 24.2 mph N/A   Overcast
12:15 PM 33.8 °F 23.2 °F 30.2 °F 87% 29.90 in 10.0 mi North 17.3 mph 25.3 mph N/A   Overcast
12:35 PM 33.8 °F 23.2 °F 30.2 °F 87% 29.87 in 10.0 mi North 17.3 mph 20.7 mph N/A   Overcast
12:55 PM 33.8 °F 22.5 °F 28.4 °F 81% 29.85 in 10.0 mi North 19.6 mph 28.8 mph N/A   Overcast
1:15 PM 32.0 °F 19.2 °F 28.4 °F 87% 29.90 in 10.0 mi North 23.0 mph 31.1 mph N/A   Overcast
1:35 PM 32.0 °F 19.2 °F 26.6 °F 80% 29.91 in 10.0 mi NNW 23.0 mph 27.6 mph N/A   Overcast
1:55 PM 32.0 °F 19.5 °F 26.6 °F 80% 29.89 in 10.0 mi North 21.9 mph 27.6 mph N/A   Overcast
2:15 PM 32.0 °F 18.9 °F 24.8 °F 75% 29.88 in 10.0 mi North 24.2 mph 29.9 mph N/A   Overcast
2:35 PM 32.0 °F 18.6 °F 24.8 °F 75% 29.92 in 10.0 mi North 25.3 mph 32.2 mph N/A   Overcast
2:55 PM 32.0 °F 18.6 °F 23.0 °F 69% 29.88 in 10.0 mi North 25.3 mph 32.2 mph N/A   Overcast
3:15 PM 32.0 °F 19.8 °F 24.8 °F 75% 29.90 in 10.0 mi North 20.7 mph 27.6 mph N/A   Overcast
3:35 PM 32.0 °F 20.1 °F 23.0 °F 69% 29.90 in 10.0 mi North 19.6 mph 27.6 mph N/A   Overcast
3:55 PM 32.0 °F 20.5 °F 23.0 °F 69% 29.90 in 10.0 mi North 18.4 mph 25.3 mph N/A Thunderstorm Overcast
4:15 PM 32.0 °F 20.8 °F 23.0 °F 69% 29.91 in 10.0 mi North 17.3 mph 20.7 mph N/A   Overcast
4:35 PM 32.0 °F 20.8 °F 26.6 °F 80% 29.93 in 10.0 mi North 17.3 mph 24.2 mph N/A Thunderstorm Overcast
4:55 PM 32.0 °F 19.2 °F 26.6 °F 80% 29.95 in 10.0 mi NNW 23.0 mph 29.9 mph N/A   Overcast
5:15 PM 30.2 °F 17.1 °F 26.6 °F 86% 29.97 in 10.0 mi North 21.9 mph 25.3 mph N/A   Overcast
5:35 PM 30.2 °F 16.5 °F 24.8 °F 80% 29.95 in 10.0 mi North 24.2 mph 29.9 mph N/A   Overcast
5:55 PM 30.2 °F 17.4 °F 24.8 °F 80% 29.97 in 10.0 mi North 20.7 mph 27.6 mph N/A   Overcast
6:15 PM 30.2 °F 16.5 °F 24.8 °F 80% 29.98 in 10.0 mi North 24.2 mph 28.8 mph N/A   Overcast
6:35 PM 30.2 °F 18.1 °F 23.0 °F 75% 29.99 in 10.0 mi North 18.4 mph 28.8 mph N/A   Overcast
6:55 PM 30.2 °F 18.9 °F 23.0 °F 75% 30.00 in 10.0 mi North 16.1 mph 26.5 mph N/A   Overcast
7:15 PM 30.2 °F 18.1 °F 23.0 °F 75% 29.98 in 10.0 mi North 18.4 mph 24.2 mph N/A   Mostly Cloudy
7:35 PM 28.4 °F 16.6 °F 23.0 °F 80% 29.99 in 10.0 mi North 16.1 mph - N/A   Scattered Clouds
7:55 PM 30.2 °F 18.5 °F 23.0 °F 75% 30.02 in 10.0 mi North 17.3 mph - N/A   Mostly Cloudy
8:15 PM 30.2 °F 17.8 °F 21.2 °F 69% 30.01 in 10.0 mi North 19.6 mph 24.2 mph N/A   Overcast
8:35 PM 30.2 °F 19.3 °F 21.2 °F 69% 30.01 in 10.0 mi North 15.0 mph 23.0 mph N/A   Overcast
8:55 PM 30.2 °F 18.5 °F 23.0 °F 75% 30.01 in 10.0 mi North 17.3 mph 21.9 mph N/A   Mostly Cloudy
9:15 PM 28.4 °F 15.4 °F 21.2 °F 74% 30.01 in 10.0 mi North 19.6 mph 24.2 mph N/A   Overcast
9:35 PM 28.4 °F 15.4 °F 21.2 °F 74% 30.01 in 10.0 mi North 19.6 mph - N/A   Scattered Clouds
9:55 PM 28.4 °F 15.8 °F 21.2 °F 74% 30.02 in 10.0 mi North 18.4 mph 28.8 mph N/A   Clear
10:15 PM 28.4 °F 17.0 °F 21.2 °F 74% 30.05 in 10.0 mi North 15.0 mph 25.3 mph N/A   Clear
10:35 PM 28.4 °F 15.8 °F 21.2 °F 74% 30.05 in 10.0 mi North 18.4 mph - N/A   Clear
10:55 PM 28.4 °F 14.7 °F 19.4 °F 69% 30.04 in 10.0 mi North 21.9 mph 27.6 mph N/A   Clear
11:15 PM 26.6 °F 13.1 °F 19.4 °F 74% 30.05 in 10.0 mi North 19.6 mph 26.5 mph N/A   Clear
11:35 PM 26.6 °F 12.7 °F 19.4 °F 74% 30.03 in 10.0 mi North 20.7 mph 26.5 mph N/A   Scattered Clouds
11:55 PM 26.6 °F 14.7 °F 19.4 °F 74% 30.05 in 10.0 mi North 15.0 mph 25.3 mph N/A   Mostly Cloudy